Time,TemperatureF,DewpointF,PressureIn,WindDirection,WindDirectionDegrees,WindSpeedMPH,WindSpeedGustMPH,Humidity,HourlyPrecipIn,Conditions,Clouds,dailyrainin,SoftwareType,DateUTC
2013-02-07 00:01:00,29.0,23.0,29.91,West,264,0.0,-999.0,79,-99.99,,,-99.99,,2013-02-07 07:01:00,
2013-02-07 00:11:00,29.0,23.0,29.91,West,264,0.0,-999.0,79,-99.99,,,-99.99,,2013-02-07 07:11:00,
2013-02-07 00:21:00,29.0,24.0,29.91,West,264,0.0,-999.0,80,-99.99,,,-99.99,,2013-02-07 07:21:00,
2013-02-07 00:31:00,29.0,24.0,29.90,West,264,0.0,-999.0,82,-99.99,,,-99.99,,2013-02-07 07:31:00,
2013-02-07 00:41:00,29.0,24.0,29.90,West,264,0.0,-999.0,82,-99.99,,,-99.99,,2013-02-07 07:41:00,
2013-02-07 00:52:00,29.0,24.0,29.90,West,264,1.0,-999.0,80,-99.99,,,-99.99,,2013-02-07 07:52:00,
2013-02-07 01:01:00,27.0,22.0,29.91,West,264,0.0,-999.0,81,-99.99,,,-99.99,,2013-02-07 08:01:00,
2013-02-07 01:11:00,27.0,22.0,29.91,West,264,0.0,-999.0,81,-99.99,,,-99.99,,2013-02-07 08:11:00,
2013-02-07 01:21:00,25.0,21.0,29.93,West,264,1.0,-999.0,83,-99.99,,,-99.99,,2013-02-07 08:21:00,
2013-02-07 01:31:00,27.0,23.0,29.93,West,264,1.0,-999.0,84,-99.99,,,-99.99,,2013-02-07 08:31:00,
2013-02-07 01:41:00,27.0,23.0,29.93,West,264,1.0,-999.0,84,-99.99,,,-99.99,,2013-02-07 08:41:00,
2013-02-07 01:52:00,27.0,23.0,29.92,West,264,0.0,-999.0,84,-99.99,,,-99.99,,2013-02-07 08:52:00,
2013-02-07 02:01:00,26.0,22.0,29.94,West,264,0.0,-999.0,84,-99.99,,,-99.99,,2013-02-07 09:01:00,
2013-02-07 02:11:00,26.0,22.0,29.94,West,264,0.0,-999.0,84,-99.99,,,-99.99,,2013-02-07 09:11:00,
2013-02-07 02:21:00,26.0,22.0,29.94,West,264,2.0,-999.0,84,-99.99,,,-99.99,,2013-02-07 09:21:00,
2013-02-07 02:31:00,25.0,21.0,29.96,West,264,1.0,-999.0,85,-99.99,,,-99.99,,2013-02-07 09:31:00,
2013-02-07 02:41:00,25.0,21.0,29.96,West,264,1.0,-999.0,85,-99.99,,,-99.99,,2013-02-07 09:41:00,
2013-02-07 02:52:00,25.0,21.0,29.95,West,264,2.0,-999.0,85,-99.99,,,-99.99,,2013-02-07 09:52:00,
2013-02-07 03:01:00,25.0,21.0,29.95,West,264,1.0,-999.0,86,-99.99,,,-99.99,,2013-02-07 10:01:00,
2013-02-07 03:11:00,25.0,21.0,29.95,West,264,1.0,-999.0,86,-99.99,,,-99.99,,2013-02-07 10:11:00,
2013-02-07 03:22:00,24.0,20.0,29.95,West,264,0.0,-999.0,86,-99.99,,,-99.99,,2013-02-07 10:22:00,
2013-02-07 03:31:00,23.0,19.0,29.97,West,264,1.0,-999.0,86,-99.99,,,-99.99,,2013-02-07 10:31:00,
2013-02-07 03:41:00,23.0,19.0,29.97,West,264,1.0,-999.0,86,-99.99,,,-99.99,,2013-02-07 10:41:00,
2013-02-07 03:52:00,23.0,20.0,29.97,West,264,0.0,-999.0,87,-99.99,,,-99.99,,2013-02-07 10:52:00,
2013-02-07 04:01:00,23.0,20.0,29.97,West,264,1.0,-999.0,87,-99.99,,,-99.99,,2013-02-07 11:01:00,
2013-02-07 04:11:00,23.0,20.0,29.97,West,264,1.0,-999.0,87,-99.99,,,-99.99,,2013-02-07 11:11:00,
2013-02-07 04:22:00,23.0,20.0,29.98,West,264,0.0,-999.0,88,-99.99,,,-99.99,,2013-02-07 11:22:00,
2013-02-07 04:32:00,23.0,20.0,29.99,West,264,1.0,-999.0,87,-99.99,,,-99.99,,2013-02-07 11:32:00,
2013-02-07 04:43:00,23.0,20.0,29.99,West,264,1.0,-999.0,87,-99.99,,,-99.99,,2013-02-07 11:43:00,
2013-02-07 04:52:00,23.0,20.0,29.99,West,264,0.0,-999.0,88,-99.99,,,-99.99,,2013-02-07 11:52:00,
2013-02-07 05:01:00,23.0,20.0,30.00,West,264,1.0,-999.0,87,-99.99,,,-99.99,,2013-02-07 12:01:00,
2013-02-07 05:11:00,23.0,20.0,30.00,West,264,1.0,-999.0,87,-99.99,,,-99.99,,2013-02-07 12:11:00,
2013-02-07 05:21:00,22.0,19.0,30.03,West,264,1.0,-999.0,88,-99.99,,,-99.99,,2013-02-07 12:21:00,
2013-02-07 05:32:00,22.0,19.0,30.03,West,264,1.0,-999.0,88,-99.99,,,-99.99,,2013-02-07 12:32:00,
2013-02-07 05:41:00,22.0,19.0,30.03,West,264,1.0,-999.0,88,-99.99,,,-99.99,,2013-02-07 12:41:00,
2013-02-07 05:53:00,22.0,19.0,30.05,West,264,2.0,-999.0,87,-99.99,,,-99.99,,2013-02-07 12:53:00,
2013-02-07 06:02:00,21.0,18.0,30.05,West,264,1.0,-999.0,87,-99.99,,,-99.99,,2013-02-07 13:02:00,
2013-02-07 06:11:00,21.0,18.0,30.05,West,264,1.0,-999.0,87,-99.99,,,-99.99,,2013-02-07 13:11:00,
2013-02-07 06:21:00,21.0,18.0,30.06,West,264,0.0,-999.0,88,-99.99,,,-99.99,,2013-02-07 13:21:00,
2013-02-07 06:31:00,21.0,18.0,30.10,West,264,1.0,-999.0,88,-99.99,,,-99.99,,2013-02-07 13:31:00,
2013-02-07 06:41:00,21.0,18.0,30.10,West,264,1.0,-999.0,88,-99.99,,,-99.99,,2013-02-07 13:41:00,
2013-02-07 06:52:00,21.0,18.0,30.10,West,264,1.0,-999.0,87,-99.99,,,-99.99,,2013-02-07 13:52:00,
2013-02-07 07:01:00,20.0,17.0,30.12,West,264,1.0,-999.0,87,-99.99,,,-99.99,,2013-02-07 14:01:00,
2013-02-07 07:11:00,20.0,17.0,30.12,West,264,1.0,-999.0,87,-99.99,,,-99.99,,2013-02-07 14:11:00,
2013-02-07 07:21:00,20.0,17.0,30.13,West,264,0.0,-999.0,87,-99.99,,,-99.99,,2013-02-07 14:21:00,
2013-02-07 07:31:00,19.0,16.0,30.15,West,264,0.0,-999.0,87,-99.99,,,-99.99,,2013-02-07 14:31:00,
2013-02-07 07:41:00,19.0,16.0,30.15,West,264,0.0,-999.0,87,-99.99,,,-99.99,,2013-02-07 14:41:00,
2013-02-07 07:52:00,21.0,18.0,30.16,West,264,2.0,-999.0,88,-99.99,,,-99.99,,2013-02-07 14:52:00,
2013-02-07 08:01:00,22.0,19.0,30.15,West,264,1.0,-999.0,88,-99.99,,,-99.99,,2013-02-07 15:01:00,
2013-02-07 08:11:00,22.0,19.0,30.15,West,264,1.0,-999.0,88,-99.99,,,-99.99,,2013-02-07 15:11:00,
2013-02-07 08:21:00,23.0,20.0,30.15,West,264,3.0,-999.0,88,-99.99,,,-99.99,,2013-02-07 15:21:00,
2013-02-07 08:31:00,26.0,23.0,30.18,West,264,0.0,-999.0,87,-99.99,,,-99.99,,2013-02-07 15:31:00,
2013-02-07 08:41:00,26.0,23.0,30.18,West,264,0.0,-999.0,87,-99.99,,,-99.99,,2013-02-07 15:41:00,
2013-02-07 08:52:00,27.0,23.0,30.17,West,264,2.0,-999.0,85,-99.99,,,-99.99,,2013-02-07 15:52:00,
2013-02-07 09:01:00,30.0,25.0,30.16,West,264,1.0,-999.0,83,-99.99,,,-99.99,,2013-02-07 16:01:00,
2013-02-07 09:11:00,30.0,25.0,30.16,West,264,1.0,-999.0,83,-99.99,,,-99.99,,2013-02-07 16:11:00,
2013-02-07 09:21:00,31.0,26.0,30.15,West,264,2.0,-999.0,80,-99.99,,,-99.99,,2013-02-07 16:21:00,
2013-02-07 09:31:00,34.0,28.0,30.14,West,264,1.0,-999.0,77,-99.99,,,-99.99,,2013-02-07 16:31:00,
2013-02-07 09:41:00,34.0,28.0,30.14,West,264,1.0,-999.0,77,-99.99,,,-99.99,,2013-02-07 16:41:00,
2013-02-07 09:52:00,36.0,28.0,30.13,West,264,1.0,-999.0,71,-99.99,,,-99.99,,2013-02-07 16:52:00,
2013-02-07 10:01:00,38.0,28.0,30.11,ESE,106,4.0,-999.0,67,-99.99,,,-99.99,,2013-02-07 17:01:00,
2013-02-07 10:11:00,38.0,28.0,30.11,ESE,106,4.0,-999.0,67,-99.99,,,-99.99,,2013-02-07 17:11:00,
2013-02-07 10:21:00,39.0,28.0,30.10,ENE,69,3.0,-999.0,64,-99.99,,,-99.99,,2013-02-07 17:21:00,
2013-02-07 10:31:00,39.0,27.0,30.11,SE,142,2.0,-999.0,62,-99.99,,,-99.99,,2013-02-07 17:31:00,
2013-02-07 10:41:00,39.0,27.0,30.11,SE,142,2.0,-999.0,62,-99.99,,,-99.99,,2013-02-07 17:41:00,
2013-02-07 10:52:00,40.0,27.0,30.09,SE,128,3.0,-999.0,59,-99.99,,,-99.99,,2013-02-07 17:52:00,
2013-02-07 11:01:00,40.0,27.0,30.10,East,98,2.0,-999.0,59,-99.99,,,-99.99,,2013-02-07 18:01:00,
2013-02-07 11:11:00,40.0,27.0,30.10,East,98,2.0,-999.0,59,-99.99,,,-99.99,,2013-02-07 18:11:00,
2013-02-07 11:22:00,41.0,27.0,30.10,East,81,2.0,-999.0,58,-99.99,,,-99.99,,2013-02-07 18:22:00,
2013-02-07 11:31:00,41.0,27.0,30.11,South,169,2.0,-999.0,57,-99.99,,,-99.99,,2013-02-07 18:31:00,
2013-02-07 11:41:00,41.0,27.0,30.11,South,169,2.0,-999.0,57,-99.99,,,-99.99,,2013-02-07 18:41:00,
2013-02-07 11:51:00,41.0,27.0,30.11,South,169,2.0,-999.0,57,-99.99,,,-99.99,,2013-02-07 18:51:00,
2013-02-07 12:01:00,42.0,29.0,30.11,SW,232,1.0,-999.0,59,-99.99,,,-99.99,,2013-02-07 19:01:00,
2013-02-07 12:11:00,42.0,29.0,30.11,SW,232,1.0,-999.0,59,-99.99,,,-99.99,,2013-02-07 19:11:00,
2013-02-07 12:21:00,42.0,27.0,30.11,SW,231,1.0,-999.0,55,-99.99,,,-99.99,,2013-02-07 19:21:00,
2013-02-07 12:31:00,43.0,27.0,30.08,SW,231,2.0,-999.0,53,-99.99,,,-99.99,,2013-02-07 19:31:00,
2013-02-07 12:41:00,43.0,27.0,30.08,SW,231,2.0,-999.0,53,-99.99,,,-99.99,,2013-02-07 19:41:00,
2013-02-07 12:51:00,44.0,28.0,30.10,SW,226,2.0,-999.0,54,-99.99,,,-99.99,,2013-02-07 19:51:00,
2013-02-07 13:01:00,44.0,27.0,30.10,SW,226,1.0,-999.0,51,-99.99,,,-99.99,,2013-02-07 20:01:00,
2013-02-07 13:11:00,44.0,27.0,30.10,SW,226,1.0,-999.0,51,-99.99,,,-99.99,,2013-02-07 20:11:00,
2013-02-07 13:21:00,45.0,27.0,30.08,SW,221,2.0,-999.0,50,-99.99,,,-99.99,,2013-02-07 20:21:00,
2013-02-07 13:31:00,45.0,27.0,30.07,SW,222,2.0,-999.0,50,-99.99,,,-99.99,,2013-02-07 20:31:00,
2013-02-07 13:41:00,45.0,27.0,30.07,SW,222,2.0,-999.0,50,-99.99,,,-99.99,,2013-02-07 20:41:00,
2013-02-07 13:52:00,46.0,27.0,30.05,SW,221,1.0,-999.0,48,-99.99,,,-99.99,,2013-02-07 20:52:00,
2013-02-07 14:01:00,46.0,26.0,30.05,SW,221,1.0,-999.0,46,-99.99,,,-99.99,,2013-02-07 21:01:00,
2013-02-07 14:11:00,46.0,26.0,30.05,SW,221,1.0,-999.0,46,-99.99,,,-99.99,,2013-02-07 21:11:00,
2013-02-07 14:21:00,46.0,26.0,30.04,SW,221,1.0,-999.0,46,-99.99,,,-99.99,,2013-02-07 21:21:00,
2013-02-07 14:31:00,46.0,26.0,30.04,SW,221,1.0,-999.0,46,-99.99,,,-99.99,,2013-02-07 21:31:00,
2013-02-07 14:41:00,46.0,26.0,30.04,SW,221,1.0,-999.0,46,-99.99,,,-99.99,,2013-02-07 21:41:00,
2013-02-07 14:51:00,48.0,25.0,30.03,SW,218,0.0,-999.0,40,-99.99,,,-99.99,,2013-02-07 21:51:00,
2013-02-07 15:02:00,48.0,24.0,30.02,SW,220,1.0,-999.0,39,-99.99,,,-99.99,,2013-02-07 22:02:00,
2013-02-07 15:11:00,48.0,24.0,30.02,SW,220,1.0,-999.0,39,-99.99,,,-99.99,,2013-02-07 22:11:00,
2013-02-07 15:21:00,48.0,24.0,30.03,SW,217,2.0,-999.0,38,-99.99,,,-99.99,,2013-02-07 22:21:00,
2013-02-07 15:31:00,48.0,20.0,30.02,SSW,210,3.0,-999.0,33,-99.99,,,-99.99,,2013-02-07 22:31:00,
2013-02-07 15:42:00,48.0,20.0,30.02,SSW,210,3.0,-999.0,33,-99.99,,,-99.99,,2013-02-07 22:42:00,
2013-02-07 15:51:00,48.0,20.0,30.03,SSW,210,2.0,-999.0,32,-99.99,,,-99.99,,2013-02-07 22:51:00,
2013-02-07 16:01:00,48.0,19.0,30.02,SE,143,3.0,-999.0,31,-99.99,,,-99.99,,2013-02-07 23:01:00,
2013-02-07 16:11:00,48.0,19.0,30.02,SE,143,3.0,-999.0,31,-99.99,,,-99.99,,2013-02-07 23:11:00,
2013-02-07 16:21:00,48.0,19.0,30.02,SE,143,1.0,-999.0,31,-99.99,,,-99.99,,2013-02-07 23:21:00,
2013-02-07 16:31:00,47.0,17.0,30.02,SSE,154,2.0,-999.0,30,-99.99,,,-99.99,,2013-02-07 23:31:00,
2013-02-07 16:41:00,47.0,17.0,30.02,SSE,154,2.0,-999.0,30,-99.99,,,-99.99,,2013-02-07 23:41:00,
2013-02-07 16:52:00,47.0,18.0,30.03,SSE,150,2.0,-999.0,31,-99.99,,,-99.99,,2013-02-07 23:52:00,
2013-02-07 17:01:00,46.0,20.0,30.05,ESE,104,2.0,-999.0,35,-99.99,,,-99.99,,2013-02-08 00:01:00,
2013-02-07 17:11:00,46.0,20.0,30.05,ESE,104,2.0,-999.0,35,-99.99,,,-99.99,,2013-02-08 00:11:00,
2013-02-07 17:21:00,46.0,20.0,30.05,ESE,104,2.0,-999.0,35,-99.99,,,-99.99,,2013-02-08 00:21:00,
2013-02-07 17:31:00,46.0,18.0,30.05,SSE,152,3.0,-999.0,32,-99.99,,,-99.99,,2013-02-08 00:31:00,
2013-02-07 17:41:00,46.0,18.0,30.05,SSE,152,3.0,-999.0,32,-99.99,,,-99.99,,2013-02-08 00:41:00,
2013-02-07 17:52:00,45.0,17.0,30.06,SSE,152,1.0,-999.0,32,-99.99,,,-99.99,,2013-02-08 00:52:00,
2013-02-07 18:01:00,43.0,17.0,30.07,SSE,152,0.0,-999.0,34,-99.99,,,-99.99,,2013-02-08 01:01:00,
2013-02-07 18:11:00,43.0,17.0,30.07,SSE,152,0.0,-999.0,34,-99.99,,,-99.99,,2013-02-08 01:11:00,
2013-02-07 18:21:00,42.0,18.0,30.07,SSE,152,0.0,-999.0,37,-99.99,,,-99.99,,2013-02-08 01:21:00,
2013-02-07 18:31:00,41.0,19.0,30.09,SSE,152,0.0,-999.0,41,-99.99,,,-99.99,,2013-02-08 01:31:00,
2013-02-07 18:41:00,41.0,19.0,30.09,SSE,152,0.0,-999.0,41,-99.99,,,-99.99,,2013-02-08 01:41:00,
2013-02-07 18:51:00,39.0,18.0,30.10,SSE,152,0.0,-999.0,43,-99.99,,,-99.99,,2013-02-08 01:51:00,
2013-02-07 19:01:00,39.0,19.0,30.10,SSE,152,0.0,-999.0,44,-99.99,,,-99.99,,2013-02-08 02:01:00,
2013-02-07 19:11:00,39.0,19.0,30.10,SSE,152,0.0,-999.0,44,-99.99,,,-99.99,,2013-02-08 02:11:00,
2013-02-07 19:21:00,38.0,19.0,30.11,SSE,152,0.0,-999.0,46,-99.99,,,-99.99,,2013-02-08 02:21:00,
2013-02-07 19:31:00,35.0,20.0,30.13,SSE,152,1.0,-999.0,53,-99.99,,,-99.99,,2013-02-08 02:31:00,
2013-02-07 19:42:00,35.0,20.0,30.13,SSE,152,1.0,-999.0,53,-99.99,,,-99.99,,2013-02-08 02:42:00,
2013-02-07 19:52:00,32.0,19.0,30.13,SSE,152,2.0,-999.0,58,-99.99,,,-99.99,,2013-02-08 02:52:00,
2013-02-07 20:01:00,31.0,20.0,30.12,SSE,152,3.0,-999.0,62,-99.99,,,-99.99,,2013-02-08 03:01:00,
2013-02-07 20:12:00,31.0,20.0,30.12,SSE,152,3.0,-999.0,62,-99.99,,,-99.99,,2013-02-08 03:12:00,
2013-02-07 20:22:00,28.0,19.0,30.15,SSE,152,4.0,-999.0,69,-99.99,,,-99.99,,2013-02-08 03:22:00,
2013-02-07 20:31:00,27.0,20.0,30.15,SSE,152,4.0,-999.0,74,-99.99,,,-99.99,,2013-02-08 03:31:00,
2013-02-07 20:41:00,27.0,20.0,30.15,SSE,152,4.0,-999.0,74,-99.99,,,-99.99,,2013-02-08 03:41:00,
2013-02-07 20:51:00,27.0,20.0,30.11,SSE,152,3.0,-999.0,76,-99.99,,,-99.99,,2013-02-08 03:51:00,
2013-02-07 21:01:00,28.0,21.0,30.10,SSE,152,5.0,-999.0,75,-99.99,,,-99.99,,2013-02-08 04:01:00,
2013-02-07 21:11:00,28.0,21.0,30.10,SSE,152,5.0,-999.0,75,-99.99,,,-99.99,,2013-02-08 04:11:00,
2013-02-07 21:21:00,27.0,20.0,30.10,SSE,150,5.0,-999.0,76,-99.99,,,-99.99,,2013-02-08 04:21:00,
2013-02-07 21:31:00,27.0,20.0,30.10,SSE,150,2.0,-999.0,76,-99.99,,,-99.99,,2013-02-08 04:31:00,
2013-02-07 21:41:00,27.0,20.0,30.10,SSE,150,2.0,-999.0,76,-99.99,,,-99.99,,2013-02-08 04:41:00,
2013-02-07 21:51:00,27.0,21.0,30.06,SSE,149,1.0,-999.0,77,-99.99,,,-99.99,,2013-02-08 04:51:00,
2013-02-07 22:01:00,26.0,20.0,30.06,SSE,147,3.0,-999.0,77,-99.99,,,-99.99,,2013-02-08 05:01:00,
2013-02-07 22:11:00,26.0,20.0,30.06,SSE,147,3.0,-999.0,77,-99.99,,,-99.99,,2013-02-08 05:11:00,
2013-02-07 22:22:00,28.0,21.0,30.06,SE,136,3.0,-999.0,76,-99.99,,,-99.99,,2013-02-08 05:22:00,
2013-02-07 22:31:00,27.0,20.0,30.06,SE,132,3.0,-999.0,76,-99.99,,,-99.99,,2013-02-08 05:31:00,
2013-02-07 22:41:00,27.0,20.0,30.06,SE,132,3.0,-999.0,76,-99.99,,,-99.99,,2013-02-08 05:41:00,
2013-02-07 22:52:00,27.0,21.0,30.03,NNE,32,3.0,-999.0,78,-99.99,,,-99.99,,2013-02-08 05:52:00,
2013-02-07 23:01:00,27.0,21.0,30.03,NNE,13,3.0,-999.0,78,-99.99,,,-99.99,,2013-02-08 06:01:00,
2013-02-07 23:11:00,27.0,21.0,30.03,NNE,13,3.0,-999.0,78,-99.99,,,-99.99,,2013-02-08 06:11:00,
2013-02-07 23:21:00,26.0,20.0,30.03,NNE,13,1.0,-999.0,78,-99.99,,,-99.99,,2013-02-08 06:21:00,
2013-02-07 23:31:00,27.0,21.0,30.02,NNE,15,2.0,-999.0,79,-99.99,,,-99.99,,2013-02-08 06:31:00,
2013-02-07 23:41:00,27.0,21.0,30.02,NNE,15,2.0,-999.0,79,-99.99,,,-99.99,,2013-02-08 06:41:00,
2013-02-07 23:51:00,27.0,21.0,30.00,NNE,25,3.0,-999.0,78,-99.99,,,-99.99,,2013-02-08 06:51:00,